20081014,172159,0,32.751686,-117.332970,2.5,17.511,33.438,43.588,2267.10,0.0,2.754,18.240, NaN, NaN,24.200,   NaN,23.41,1015.97,40.96,20.70,339.2,339.2,11.2,11.8,327.9,332.4,6.7,7.3,NaN, NaN,24.0,9.3,NaN,NaN,NaN,2,8.8,062520,   NaN,9.3,     NaN,      NaN,9.01,NaN,NaN,17.515, NaN,NaN,NaN, NaN, NaN
20081014,172214,14,32.752255,-117.332908,2.5,17.499,33.437,43.579,2268.81,0.0,2.744,18.240, NaN, NaN,24.204,   NaN,23.32,1015.99,41.12,20.71,337.8,337.5,11.3,11.8,331.0,332.1,7.4,8.0,NaN, NaN,25.0,9.3,NaN,NaN,NaN,2,8.8,062534,   NaN,9.3,     NaN,      NaN,8.97,NaN,NaN,17.503, NaN,NaN,NaN, NaN, NaN
20081014,172229,29,32.752905,-117.332853,2.5,17.489,33.442,43.572,2271.59,0.0,2.822,18.250, NaN, NaN,24.205,   NaN,23.22,1015.94,41.62,20.84,336.9,336.6,11.3,11.8,331.0,331.5,7.3,7.6,NaN, NaN,25.0,9.4,NaN,NaN,NaN,2,8.7,062550,   NaN,9.4,     NaN,      NaN,8.93,NaN,NaN,17.493, NaN,NaN,NaN, NaN, NaN
20081014,172244,44,32.753471,-117.332825,2.5,17.479,33.442,43.565,2270.16,0.0,2.822,18.250, NaN, NaN,24.207,   NaN,23.14,1015.92,41.75,20.77,336.3,336.1,11.3,11.7,330.8,330.1,7.2,7.7,NaN, NaN,25.0,9.4,NaN,NaN,NaN,2,8.7,062564,   NaN,9.4,     NaN,      NaN,8.92,NaN,NaN,17.483, NaN,NaN,NaN, NaN, NaN
20081014,172259,59,32.754115,-117.332770,2.5,17.474,33.441,43.561,2269.19,0.0,2.860,18.250, NaN, NaN,24.209,   NaN,23.11,1015.97,41.48,20.76,336.0,335.9,11.3,11.8,327.9,331.2,7.3,8.3,NaN, NaN,25.0,9.5,NaN,NaN,NaN,2,8.7,062580,   NaN,9.5,     NaN,      NaN,8.69,NaN,NaN,17.478, NaN,NaN,NaN, NaN, NaN
20081014,172314,74,32.754681,-117.332717,2.5,17.470,33.428,43.557,2270.50,0.0,2.585,18.250, NaN, NaN,24.217,   NaN,23.19,1015.92,40.49,20.79,335.9,335.9,11.2,11.8,325.7,330.7,6.4,7.2,NaN, NaN,25.0,9.5,NaN,NaN,NaN,2,8.7,062594,   NaN,9.4,     NaN,      NaN,8.93,NaN,NaN,17.474, NaN,NaN,NaN, NaN, NaN
20081014,172329,89,32.755338,-117.332677,2.6,17.457,33.428,43.544,2264.94,0.0,2.552,18.240, NaN, NaN,24.230,   NaN,23.25,1015.94,40.24,20.80,336.0,335.9,11.1,11.7,333.2,332.5,7.0,7.5,NaN, NaN,25.0,9.1,NaN,NaN,NaN,2,8.7,062610,   NaN,9.1,     NaN,      NaN,8.68,NaN,NaN,17.461, NaN,NaN,NaN, NaN, NaN
20081014,172344,105,32.755935,-117.332633,2.6,17.406,33.432,43.488,2262.55,0.0,2.585,18.240, NaN, NaN,24.225,   NaN,23.26,1015.97,40.39,20.83,336.7,336.4,11.1,11.7,336.2,334.1,7.6,7.3,NaN, NaN,25.0,9.2,NaN,NaN,NaN,2,8.6,062625,   NaN,9.2,     NaN,      NaN,8.71,NaN,NaN,17.410, NaN,NaN,NaN, NaN, NaN
20081014,172359,120,32.756533,-117.332602,2.5,17.376,33.436,43.459,2262.70,0.0,2.648,18.240, NaN, NaN,24.221,   NaN,23.31,1015.97,40.31,20.82,338.0,337.6,11.0,11.6,332.7,334.2,6.6,7.4,NaN, NaN,24.0,9.2,NaN,NaN,NaN,2,8.6,062640,   NaN,9.2,     NaN,      NaN,8.86,NaN,NaN,17.380, NaN,NaN,NaN, NaN, NaN
20081014,172414,135,32.757143,-117.332535,2.5,17.376,33.436,43.459,2266.35,0.0,2.676,18.240, NaN, NaN,24.219,   NaN,23.41,1015.97,39.89,20.81,338.4,338.0,11.1,11.4,334.8,333.9,6.9,7.2,NaN, NaN,24.0,9.3,NaN,NaN,NaN,2,8.6,062655,   NaN,9.3,     NaN,      NaN,8.84,NaN,NaN,17.380, NaN,NaN,NaN, NaN, NaN
20081014,172429,150,32.757705,-117.332505,2.5,17.385,33.435,43.470,2266.43,0.0,2.658,18.250, NaN, NaN,24.216,   NaN,23.45,1015.97,39.84,20.81,338.7,338.3,11.3,11.4,335.6,336.0,7.3,7.5,NaN, NaN,24.0,9.3,NaN,NaN,NaN,2,8.6,062669,   NaN,9.3,     NaN,      NaN,8.60,NaN,NaN,17.389, NaN,NaN,NaN, NaN, NaN
20081014,172444,165,32.758341,-117.332472,2.5,17.396,33.429,43.479,2266.89,0.0,2.351,18.240, NaN, NaN,24.218,   NaN,23.53,1015.97,39.91,20.84,338.6,338.6,11.1,11.4,333.4,336.0,6.9,7.5,NaN, NaN,24.0,9.3,NaN,NaN,NaN,2,8.6,062685,   NaN,9.3,     NaN,      NaN,8.60,NaN,NaN,17.400, NaN,NaN,NaN, NaN, NaN
20081014,172459,179,32.758900,-117.332433,2.6,17.399,33.437,43.483,2266.21,0.0,2.081,18.250, NaN, NaN,24.213,   NaN,23.56,1015.94,40.14,20.87,339.0,338.7,11.2,11.4,336.2,334.8,7.6,7.7,NaN, NaN,23.0,9.3,NaN,NaN,NaN,2,8.6,062699,   NaN,9.3,     NaN,      NaN,8.66,NaN,NaN,17.403, NaN,NaN,NaN, NaN, NaN
20081014,172514,194,32.759535,-117.332372,2.5,17.406,33.448,43.490,2265.63,0.0,2.040,18.250, NaN, NaN,24.184,   NaN,23.47,1015.84,40.55,20.91,338.4,338.3,11.1,11.4,327.8,330.9,6.6,8.0,NaN, NaN,23.0,9.4,NaN,NaN,NaN,2,8.6,062715,   NaN,9.4,     NaN,      NaN,8.82,NaN,NaN,17.410, NaN,NaN,NaN, NaN, NaN
20081014,172529,209,32.760091,-117.332317,2.5,17.440,33.451,43.525,2273.45,0.0,2.035,18.260, NaN, NaN,24.161,   NaN,23.37,1015.92,41.38,20.96,337.5,338.0,11.0,11.6,331.8,334.1,7.7,8.2,NaN, NaN,23.0,9.3,NaN,NaN,NaN,2,8.6,062729,   NaN,9.3,     NaN,      NaN,8.72,NaN,NaN,17.444, NaN,NaN,NaN, NaN, NaN
20081014,172544,224,32.760683,-117.332282,2.5,17.550,33.454,43.638,2275.12,0.0,1.994,18.260, NaN, NaN,24.147,   NaN,23.20,1015.81,42.15,20.96,336.5,336.9,11.3,11.8,330.7,331.7,7.8,8.4,NaN, NaN,23.0,9.4,NaN,NaN,NaN,2,8.5,062744,   NaN,9.5,     NaN,      NaN,8.63,NaN,NaN,17.554, NaN,NaN,NaN, NaN, NaN
20081014,172559,239,32.761305,-117.332215,2.6,17.671,33.449,43.762,2271.46,0.0,2.071,18.260, NaN, NaN,24.139,   NaN,23.10,1015.84,42.52,21.00,335.3,335.6,11.2,11.9,329.4,331.8,7.5,8.9,NaN, NaN,23.0,10.1,NaN,NaN,NaN,2,8.5,062760,   NaN,10.2,     NaN,      NaN,8.72,NaN,NaN,17.675, NaN,NaN,NaN, NaN, NaN
20081014,172613,254,32.761858,-117.332140,2.5,17.735,33.446,43.823,2273.57,0.0,2.058,18.250, NaN, NaN,24.143,   NaN,23.02,1015.87,42.46,20.97,334.9,335.3,11.3,12.1,332.5,333.9,7.4,8.2,NaN, NaN,23.0,10.5,NaN,NaN,NaN,2,8.5,062774,   NaN,10.5,     NaN,      NaN,8.62,NaN,NaN,17.739, NaN,NaN,NaN, NaN, NaN
20081014,172629,270,32.762455,-117.332062,2.5,17.754,33.448,43.839,2275.69,0.0,2.048,18.250, NaN, NaN,24.142,   NaN,23.08,1015.84,42.00,20.89,335.6,335.9,11.4,12.1,333.2,333.7,7.4,7.7,NaN, NaN,23.0,11.1,NaN,NaN,NaN,2,8.5,062789,   NaN,11.1,     NaN,      NaN,8.64,NaN,NaN,17.758, NaN,NaN,NaN, NaN, NaN
20081014,172644,285,32.763085,-117.331955,2.5,17.760,33.445,43.844,2274.94,0.0,2.104,18.250, NaN, NaN,24.141,   NaN,23.06,1015.89,42.27,20.88,335.7,335.9,11.4,12.1,334.8,335.5,7.9,8.4,NaN, NaN,23.0,11.7,NaN,NaN,NaN,2,8.5,062805,   NaN,11.7,     NaN,      NaN,8.69,NaN,NaN,17.764, NaN,NaN,NaN, NaN, NaN
20081014,172659,300,32.763675,-117.331862,2.5,17.757,33.443,43.840,2276.09,0.0,2.048,18.250, NaN, NaN,24.147,   NaN,22.97,1015.87,42.70,20.88,336.1,336.0,11.6,12.0,334.7,335.0,7.7,7.9,NaN, NaN,23.0,12.0,NaN,NaN,NaN,2,8.5,062820,   NaN,12.0,     NaN,      NaN,8.68,NaN,NaN,17.761, NaN,NaN,NaN, NaN, NaN
20081014,172714,315,32.764266,-117.331768,2.5,17.748,33.441,43.830,2280.29,0.0,2.035,18.250, NaN, NaN,24.149,   NaN,22.97,1015.84,42.77,20.88,336.5,336.0,11.7,12.0,339.1,338.0,8.4,8.7,NaN, NaN,23.0,12.4,NaN,NaN,NaN,2,8.5,062835,   NaN,12.4,     NaN,      NaN,8.79,NaN,NaN,17.752, NaN,NaN,NaN, NaN, NaN
20081014,172728,328,32.764780,-117.331693,2.5,17.734,33.441,43.814,2276.28,0.0,1.970,18.260, NaN, NaN,24.151,   NaN,22.99,1015.81,42.65,20.87,336.4,336.0,11.7,12.0,332.6,333.1,7.2,8.3,NaN, NaN,23.0,12.5,NaN,NaN,NaN,2,8.5,062848,   NaN,12.5,     NaN,      NaN,8.76,NaN,NaN,17.738, NaN,NaN,NaN, NaN, NaN
20081014,172744,344,32.765446,-117.331580,2.6,17.715,33.434,43.794,2271.14,0.0,2.191,18.260, NaN, NaN,24.159,   NaN,22.99,1015.72,42.19,20.81,336.0,336.1,11.7,12.1,335.9,338.2,8.0,8.6,NaN, NaN,24.0,12.7,NaN,NaN,NaN,2,8.5,062865,   NaN,12.7,     NaN,      NaN,8.76,NaN,NaN,17.719, NaN,NaN,NaN, NaN, NaN
20081014,172759,359,32.766036,-117.331467,2.5,17.699,33.440,43.777,2278.01,0.0,2.154,18.260, NaN, NaN,24.167,   NaN,23.12,1015.84,41.30,20.82,335.6,336.7,11.4,12.1,333.5,337.7,7.3,7.9,NaN, NaN,24.0,13.1,NaN,NaN,NaN,2,8.5,062880,   NaN,13.2,     NaN,      NaN,8.59,NaN,NaN,17.703, NaN,NaN,NaN, NaN, NaN
20081014,172814,374,32.766571,-117.331378,2.5,17.673,33.438,43.750,2279.48,0.0,2.136,18.250, NaN, NaN,24.159,   NaN,23.19,1015.89,40.85,20.84,335.6,336.9,11.4,12.0,337.5,336.4,7.7,8.0,NaN, NaN,23.0,13.3,NaN,NaN,NaN,2,8.5,062894,   NaN,13.3,     NaN,      NaN,8.57,NaN,NaN,17.677, NaN,NaN,NaN, NaN, NaN
20081014,172829,389,32.767205,-117.331273,2.5,17.662,33.442,43.739,2275.67,0.0,2.076,18.250, NaN, NaN,24.156,   NaN,23.19,1015.80,41.11,20.86,335.7,336.7,11.3,11.8,335.8,336.3,7.6,7.9,NaN, NaN,23.0,13.3,NaN,NaN,NaN,2,8.5,062910,   NaN,13.3,     NaN,      NaN,8.78,NaN,NaN,17.666, NaN,NaN,NaN, NaN, NaN
20081014,172844,404,32.767795,-117.331160,2.5,17.662,33.443,43.740,2276.11,0.0,2.117,18.250, NaN, NaN,24.152,   NaN,23.16,1015.80,41.51,20.88,335.9,337.0,11.2,11.7,334.9,338.3,7.0,8.1,NaN, NaN,23.0,13.5,NaN,NaN,NaN,2,8.5,062925,   NaN,13.5,     NaN,      NaN,8.71,NaN,NaN,17.666, NaN,NaN,NaN, NaN, NaN
20081014,172859,419,32.768391,-117.331050,2.5,17.679,33.447,43.759,2279.50,0.0,2.122,18.250, NaN, NaN,24.149,   NaN,23.16,1015.80,41.68,20.89,335.7,336.6,11.2,11.7,333.8,336.4,7.4,8.0,NaN, NaN,22.0,13.3,NaN,NaN,NaN,2,8.5,062940,   NaN,13.3,     NaN,      NaN,8.70,NaN,NaN,17.683, NaN,NaN,NaN, NaN, NaN
20081014,172914,435,32.768933,-117.330965,2.5,17.702,33.450,43.783,2279.31,0.0,2.108,18.250, NaN, NaN,24.144,   NaN,23.10,1015.81,41.65,20.88,335.9,336.1,11.2,11.8,333.9,336.6,7.5,8.2,NaN, NaN,22.0,13.1,NaN,NaN,NaN,2,8.5,062954,   NaN,13.1,     NaN,      NaN,8.76,NaN,NaN,17.706, NaN,NaN,NaN, NaN, NaN
20081014,172929,450,32.769521,-117.330870,2.5,17.720,33.447,43.803,2276.27,0.0,2.076,18.240, NaN, NaN,24.136,   NaN,23.01,1015.84,41.52,20.85,335.6,336.1,11.3,11.8,333.8,335.0,7.3,7.9,NaN, NaN,22.0,13.5,NaN,NaN,NaN,2,8.5,062969,   NaN,13.5,     NaN,      NaN,8.72,NaN,NaN,17.724, NaN,NaN,NaN, NaN, NaN
20081014,172944,465,32.770108,-117.330758,2.5,17.748,33.444,43.832,2283.65,0.0,2.071,18.240, NaN, NaN,24.137,   NaN,23.07,1015.81,41.66,20.88,335.6,336.0,11.2,11.8,334.3,336.0,7.4,8.4,NaN, NaN,23.0,13.7,NaN,NaN,NaN,2,8.5,062984,   NaN,13.7,     NaN,      NaN,8.76,NaN,NaN,17.752, NaN,NaN,NaN, NaN, NaN
20081014,172959,480,32.770733,-117.330632,2.5,17.756,33.443,43.838,2285.62,0.0,2.068,18.240, NaN, NaN,24.143,   NaN,23.08,1015.81,41.84,20.88,335.4,336.0,11.1,11.8,335.4,338.0,7.2,7.7,NaN, NaN,23.0,13.7,NaN,NaN,NaN,2,8.5,063000,   NaN,13.7,     NaN,      NaN,8.82,NaN,NaN,17.760, NaN,NaN,NaN, NaN, NaN
20081014,173014,495,32.771323,-117.330523,2.5,17.756,33.440,43.838,2284.26,0.0,2.030,18.240, NaN, NaN,24.143,   NaN,23.03,1015.81,41.71,20.88,335.8,336.4,11.1,11.7,339.7,341.7,7.6,8.0,NaN, NaN,23.0,14.0,NaN,NaN,NaN,2,8.5,063015,   NaN,14.0,     NaN,      NaN,8.65,NaN,NaN,17.760, NaN,NaN,NaN, NaN, NaN
20081014,173029,509,32.771908,-117.330408,2.6,17.747,33.437,43.825,2288.98,0.0,2.099,18.250, NaN, NaN,24.145,   NaN,23.10,1015.81,41.33,20.84,336.5,336.9,11.1,11.8,346.0,345.9,7.5,8.7,NaN, NaN,22.0,14.3,NaN,NaN,NaN,2,8.5,063030,   NaN,14.3,     NaN,      NaN,8.71,NaN,NaN,17.751, NaN,NaN,NaN, NaN, NaN
20081014,173044,524,32.772496,-117.330273,2.5,17.734,33.433,43.811,2288.22,0.0,2.104,18.250, NaN, NaN,24.154,   NaN,23.21,1015.81,39.51,20.82,338.6,339.1,11.1,12.0,344.8,344.5,6.6,7.4,NaN, NaN,22.0,14.6,NaN,NaN,NaN,2,8.5,063045,   NaN,14.6,     NaN,      NaN,8.74,NaN,NaN,17.738, NaN,NaN,NaN, NaN, NaN
20081014,173059,539,32.773050,-117.330168,2.5,17.713,33.434,43.788,2285.73,0.0,1.994,18.250, NaN, NaN,24.162,   NaN,23.43,1015.72,38.32,20.85,340.8,340.9,11.3,12.1,343.9,345.2,7.1,7.9,NaN, NaN,22.0,14.5,NaN,NaN,NaN,2,8.5,063059,   NaN,14.5,     NaN,      NaN,8.73,NaN,NaN,17.717, NaN,NaN,NaN, NaN, NaN
20081014,173114,554,32.773671,-117.330062,2.5,17.671,33.427,43.743,2286.35,0.0,2.003,18.250, NaN, NaN,24.162,   NaN,23.66,1015.72,38.00,20.92,341.4,341.1,11.3,12.2,341.5,343.7,7.5,8.0,NaN, NaN,22.0,14.5,NaN,NaN,NaN,2,8.5,063075,   NaN,14.5,     NaN,      NaN,8.69,NaN,NaN,17.675, NaN,NaN,NaN, NaN, NaN
20081014,173129,569,32.774256,-117.329938,2.6,17.640,33.433,43.711,2286.05,0.0,2.008,18.250, NaN, NaN,24.169,   NaN,23.70,1015.65,37.84,20.96,340.8,341.0,11.3,12.1,339.7,340.0,8.2,8.4,NaN, NaN,23.0,14.8,NaN,NaN,NaN,2,8.5,063090,   NaN,14.8,     NaN,      NaN,8.83,NaN,NaN,17.644, NaN,NaN,NaN, NaN, NaN
20081014,173143,584,32.774766,-117.329815,2.5,17.625,33.431,43.696,2287.09,0.0,2.035,18.260, NaN, NaN,24.165,   NaN,23.73,1015.75,37.40,20.98,339.7,339.7,11.4,12.0,335.5,339.5,7.5,8.0,NaN, NaN,22.0,14.8,NaN,NaN,NaN,2,8.5,063103,   NaN,14.8,     NaN,      NaN,8.63,NaN,NaN,17.629, NaN,NaN,NaN, NaN, NaN
20081014,173159,600,32.775388,-117.329680,2.5,17.609,33.429,43.681,2294.49,0.0,2.048,18.250, NaN, NaN,24.167,   NaN,23.78,1015.72,36.33,21.03,337.9,337.7,11.6,12.0,341.0,340.0,8.1,8.5,NaN, NaN,22.0,14.7,NaN,NaN,NaN,2,8.5,063119,   NaN,14.7,     NaN,      NaN,8.68,NaN,NaN,17.613, NaN,NaN,NaN, NaN, NaN
20081014,173214,615,32.775971,-117.329590,2.5,17.600,33.425,43.671,2297.15,0.0,2.021,18.260, NaN, NaN,24.171,   NaN,23.84,1015.72,36.12,21.04,337.4,337.3,11.9,12.1,339.9,340.6,8.4,8.9,NaN, NaN,22.0,14.7,NaN,NaN,NaN,2,8.5,063134,   NaN,14.6,     NaN,      NaN,8.74,NaN,NaN,17.604, NaN,NaN,NaN, NaN, NaN
20081014,173229,630,32.776560,-117.329480,2.5,17.592,33.414,43.662,2289.67,0.0,2.003,18.260, NaN, NaN,24.180,   NaN,23.86,1015.78,35.79,21.08,336.6,337.0,11.8,12.4,335.7,336.2,7.8,9.1,NaN, NaN,22.0,14.4,NaN,NaN,NaN,2,8.5,063149,   NaN,14.4,     NaN,      NaN,8.61,NaN,NaN,17.596, NaN,NaN,NaN, NaN, NaN
20081014,173244,645,32.777145,-117.329357,2.6,17.569,33.414,43.635,2287.41,0.0,2.035,18.260, NaN, NaN,24.194,   NaN,23.87,1015.60,35.19,21.12,336.1,336.3,11.6,12.6,331.2,334.4,7.2,9.0,NaN, NaN,22.0,14.2,NaN,NaN,NaN,2,8.5,063164,   NaN,14.1,     NaN,      NaN,8.56,NaN,NaN,17.573, NaN,NaN,NaN, NaN, NaN
20081014,173259,660,32.777730,-117.329248,2.5,17.510,33.416,43.571,2291.50,0.0,2.017,18.260, NaN, NaN,24.198,   NaN,23.87,1015.72,34.77,21.17,336.0,336.3,11.8,12.7,344.1,343.0,8.6,9.0,NaN, NaN,22.0,14.0,NaN,NaN,NaN,2,8.5,063179,   NaN,14.1,     NaN,      NaN,8.80,NaN,NaN,17.514, NaN,NaN,NaN, NaN, NaN
20081014,173314,675,32.778320,-117.329130,2.5,17.449,33.418,43.508,2291.87,0.0,2.076,18.260, NaN, NaN,24.201,   NaN,23.87,1015.75,34.42,21.19,336.0,336.3,11.8,12.7,341.0,339.6,8.3,8.3,NaN, NaN,21.0,14.4,NaN,NaN,NaN,2,8.5,063194,   NaN,14.4,     NaN,      NaN,8.61,NaN,NaN,17.453, NaN,NaN,NaN, NaN, NaN
20081014,173329,689,32.778903,-117.329008,2.5,17.432,33.418,43.494,2292.26,0.0,2.044,18.260, NaN, NaN,24.196,   NaN,23.81,1015.65,34.48,21.22,336.4,336.6,11.6,12.5,339.0,339.0,7.8,7.8,NaN, NaN,21.0,14.6,NaN,NaN,NaN,2,8.5,063209,   NaN,14.6,     NaN,      NaN,8.70,NaN,NaN,17.436, NaN,NaN,NaN, NaN, NaN
20081014,173344,704,32.779528,-117.328883,2.5,17.426,33.411,43.487,2293.94,0.0,1.998,18.260, NaN, NaN,24.201,   NaN,23.72,1015.65,35.33,21.27,337.7,337.6,11.9,12.1,341.0,340.5,8.4,8.0,NaN, NaN,21.0,14.4,NaN,NaN,NaN,2,8.5,063225,   NaN,14.3,     NaN,      NaN,8.65,NaN,NaN,17.430, NaN,NaN,NaN, NaN, NaN
20081014,173359,719,32.780073,-117.328778,2.5,17.421,33.424,43.482,2290.15,0.0,2.076,18.260, NaN, NaN,24.201,   NaN,23.59,1015.75,35.93,21.29,337.9,337.9,12.1,12.0,339.2,341.1,8.0,8.3,NaN, NaN,22.0,14.5,NaN,NaN,NaN,2,8.5,063239,   NaN,14.5,     NaN,      NaN,8.64,NaN,NaN,17.425, NaN,NaN,NaN, NaN, NaN
20081014,173414,734,32.780698,-117.328647,2.5,17.428,33.424,43.490,2289.50,0.0,2.076,18.260, NaN, NaN,24.186,   NaN,23.49,1015.72,36.53,21.29,337.3,337.4,11.7,11.7,338.6,338.9,7.6,7.8,NaN, NaN,22.0,14.6,NaN,NaN,NaN,2,8.5,063255,   NaN,14.5,     NaN,      NaN,8.57,NaN,NaN,17.432, NaN,NaN,NaN, NaN, NaN
20081014,173429,749,32.781280,-117.328542,2.5,17.452,33.424,43.517,2296.21,0.0,2.108,18.260, NaN, NaN,24.179,   NaN,23.42,1015.70,37.64,21.29,337.7,337.9,11.8,11.9,341.1,340.4,7.5,8.1,NaN, NaN,22.0,14.2,NaN,NaN,NaN,2,8.5,063270,   NaN,14.1,     NaN,      NaN,8.46,NaN,NaN,17.456, NaN,NaN,NaN, NaN, NaN
20081014,173444,764,32.781828,-117.328438,2.5,17.492,33.425,43.560,2294.87,0.0,2.099,18.250, NaN, NaN,24.178,   NaN,23.30,1015.65,38.06,21.30,337.7,338.0,11.8,12.0,343.2,340.9,7.9,8.4,NaN, NaN,21.0,14.2,NaN,NaN,NaN,2,8.5,063284,   NaN,14.2,     NaN,      NaN,8.69,NaN,NaN,17.496, NaN,NaN,NaN, NaN, NaN
20081014,173459,780,32.782451,-117.328292,2.6,17.523,33.427,43.589,2293.66,0.0,2.136,18.250, NaN, NaN,24.173,   NaN,23.23,1015.62,38.46,21.30,337.8,337.9,11.7,12.1,334.5,337.5,7.9,8.9,NaN, NaN,22.0,14.5,NaN,NaN,NaN,2,8.5,063300,   NaN,14.5,     NaN,      NaN,8.66,NaN,NaN,17.527, NaN,NaN,NaN, NaN, NaN
20081014,173514,795,32.783030,-117.328167,2.5,17.538,33.431,43.604,2300.03,0.0,2.164,18.250, NaN, NaN,24.167,   NaN,23.23,1015.65,38.04,21.30,337.8,337.7,11.9,12.0,339.3,338.9,8.2,7.9,NaN, NaN,22.0,14.4,NaN,NaN,NaN,2,8.5,063315,   NaN,14.4,     NaN,      NaN,8.65,NaN,NaN,17.542, NaN,NaN,NaN, NaN, NaN
20081014,173529,810,32.783568,-117.328060,2.5,17.559,33.432,43.627,2302.18,0.0,2.191,18.260, NaN, NaN,24.161,   NaN,23.25,1015.67,37.73,21.27,337.6,337.6,12.1,12.2,341.5,339.8,8.6,8.5,NaN, NaN,21.0,14.4,NaN,NaN,NaN,2,8.4,063329,   NaN,14.4,     NaN,      NaN,8.68,NaN,NaN,17.563, NaN,NaN,NaN, NaN, NaN
20081014,173544,825,32.784185,-117.327933,2.5,17.593,33.434,43.662,2302.03,0.0,2.209,18.260, NaN, NaN,24.157,   NaN,23.31,1015.72,37.50,21.24,337.9,337.5,12.1,12.2,340.8,340.8,7.9,8.0,NaN, NaN,22.0,14.6,NaN,NaN,NaN,2,8.5,063345,   NaN,14.7,     NaN,      NaN,8.74,NaN,NaN,17.597, NaN,NaN,NaN, NaN, NaN
20081014,173559,840,32.784781,-117.327808,2.5,17.624,33.439,43.694,2303.40,0.0,2.154,18.260, NaN, NaN,24.149,   NaN,23.32,1015.65,37.60,21.32,337.7,337.6,12.2,12.3,339.7,341.5,8.5,8.7,NaN, NaN,22.0,14.4,NaN,NaN,NaN,2,8.5,063360,   NaN,14.3,     NaN,      NaN,8.59,NaN,NaN,17.628, NaN,NaN,NaN, NaN, NaN
20081014,173614,854,32.785356,-117.327680,2.5,17.650,33.439,43.722,2302.34,0.0,2.186,18.270, NaN, NaN,24.136,   NaN,23.29,1015.70,38.01,21.32,338.0,338.0,12.3,12.4,337.7,339.7,8.2,8.5,NaN, NaN,22.0,14.2,NaN,NaN,NaN,2,8.5,063375,   NaN,14.2,     NaN,      NaN,8.61,NaN,NaN,17.654, NaN,NaN,NaN, NaN, NaN
20081014,173629,869,32.785931,-117.327578,2.5,17.694,33.440,43.769,2302.45,0.0,2.191,18.270, NaN, NaN,24.139,   NaN,23.30,1015.55,37.69,21.22,337.5,337.7,12.1,12.4,332.5,338.5,8.6,9.8,NaN, NaN,23.0,14.2,NaN,NaN,NaN,2,8.4,063390,   NaN,14.2,     NaN,      NaN,8.56,NaN,NaN,17.698, NaN,NaN,NaN, NaN, NaN
20081014,173644,884,32.786468,-117.327483,2.5,17.735,33.443,43.811,2302.45,0.0,2.182,18.270, NaN, NaN,24.131,   NaN,23.30,1015.51,36.76,21.25,335.9,336.9,12.0,12.7,333.4,338.1,8.3,9.6,NaN, NaN,22.0,14.1,NaN,NaN,NaN,2,8.4,063404,   NaN,14.1,     NaN,      NaN,8.67,NaN,NaN,17.739, NaN,NaN,NaN, NaN, NaN
20081014,173659,899,32.787105,-117.327352,2.5,17.758,33.447,43.835,2304.94,0.0,2.218,18.270, NaN, NaN,24.126,   NaN,23.48,1015.62,33.67,21.24,334.0,335.3,12.0,13.1,329.3,334.6,7.7,10.1,NaN, NaN,21.0,14.1,NaN,NaN,NaN,2,8.4,063420,   NaN,14.1,     NaN,      NaN,8.65,NaN,NaN,17.762, NaN,NaN,NaN, NaN, NaN
20081014,173714,914,32.787638,-117.327237,2.5,17.784,33.448,43.863,2304.55,0.0,2.260,18.270, NaN, NaN,24.118,   NaN,23.94,1015.70,30.82,21.21,334.0,335.2,11.9,13.1,339.3,338.4,8.1,8.5,NaN, NaN,22.0,14.3,NaN,NaN,NaN,2,8.4,063434,   NaN,14.3,     NaN,      NaN,8.55,NaN,NaN,17.788, NaN,NaN,NaN, NaN, NaN
20081014,173729,929,32.788213,-117.327107,2.5,17.818,33.452,43.897,2303.78,0.0,2.287,18.270, NaN, NaN,24.111,   NaN,24.12,1015.70,30.42,21.38,334.4,335.3,11.8,13.0,337.4,338.1,7.7,8.1,NaN, NaN,22.0,14.7,NaN,NaN,NaN,2,8.4,063449,   NaN,14.7,     NaN,      NaN,8.54,NaN,NaN,17.822, NaN,NaN,NaN, NaN, NaN
20081014,173744,945,32.788833,-117.326978,2.6,17.854,33.450,43.935,2304.29,0.0,2.273,18.260, NaN, NaN,24.108,   NaN,24.12,1015.67,31.58,21.45,335.8,335.7,11.7,12.4,341.6,341.4,8.4,8.3,NaN, NaN,22.0,14.7,NaN,NaN,NaN,2,8.4,063465,   NaN,14.7,     NaN,      NaN,8.46,NaN,NaN,17.858, NaN,NaN,NaN, NaN, NaN
20081014,173759,960,32.789411,-117.326867,2.5,17.885,33.453,43.968,2301.36,0.0,2.245,18.260, NaN, NaN,24.108,   NaN,23.92,1015.70,32.83,21.42,336.8,336.1,11.8,12.3,341.8,340.5,8.6,8.8,NaN, NaN,21.0,14.6,NaN,NaN,NaN,2,8.4,063480,   NaN,14.6,     NaN,      NaN,8.53,NaN,NaN,17.889, NaN,NaN,NaN, NaN, NaN
20081014,173814,975,32.789990,-117.326750,2.5,17.904,33.456,43.987,2300.83,0.0,2.240,18.260, NaN, NaN,24.101,   NaN,23.72,1015.67,33.48,21.51,337.7,337.0,12.2,12.3,341.6,343.1,8.5,8.6,NaN, NaN,21.0,14.6,NaN,NaN,NaN,2,8.4,063495,   NaN,14.6,     NaN,      NaN,8.56,NaN,NaN,17.908, NaN,NaN,NaN, NaN, NaN
20081014,173829,990,32.790568,-117.326625,2.6,17.918,33.456,44.002,2299.78,0.0,2.250,18.270, NaN, NaN,24.096,   NaN,23.67,1015.62,33.72,21.48,337.7,337.1,12.1,12.2,337.9,336.7,7.2,7.4,NaN, NaN,21.0,14.5,NaN,NaN,NaN,2,8.4,063510,   NaN,14.5,     NaN,      NaN,8.65,NaN,NaN,17.922, NaN,NaN,NaN, NaN, NaN
20081014,173844,1005,32.791145,-117.326512,2.6,17.947,33.454,44.033,2300.05,0.0,2.250,18.270, NaN, NaN,24.094,   NaN,23.64,1015.70,34.05,21.46,338.0,337.5,12.1,12.2,343.5,341.0,7.9,8.3,NaN, NaN,21.0,14.3,NaN,NaN,NaN,2,8.4,063525,   NaN,14.3,     NaN,      NaN,8.55,NaN,NaN,17.951, NaN,NaN,NaN, NaN, NaN
20081014,173859,1019,32.791688,-117.326405,2.5,17.969,33.456,44.054,2301.85,0.0,2.240,18.270, NaN, NaN,24.093,   NaN,23.67,1015.70,33.96,21.52,338.4,337.7,11.8,12.2,345.6,344.0,8.2,8.2,NaN, NaN,21.0,14.4,NaN,NaN,NaN,2,8.4,063539,   NaN,14.4,     NaN,      NaN,8.53,NaN,NaN,17.973, NaN,NaN,NaN, NaN, NaN
20081014,173914,1034,32.792313,-117.326265,2.5,17.977,33.457,44.062,2304.64,0.0,2.245,18.270, NaN, NaN,24.088,   NaN,23.65,1015.51,33.99,21.51,337.4,337.0,11.5,12.0,334.5,339.4,7.8,8.0,NaN, NaN,21.0,14.6,NaN,NaN,NaN,2,8.4,063555,   NaN,14.6,     NaN,      NaN,8.53,NaN,NaN,17.981, NaN,NaN,NaN, NaN, NaN
20081014,173929,1049,32.792861,-117.326158,2.6,17.985,33.456,44.071,2304.64,0.0,2.291,18.270, NaN, NaN,24.085,   NaN,23.64,1015.57,34.98,21.50,337.9,337.8,11.7,12.2,342.4,342.9,8.3,8.7,NaN, NaN,22.0,14.2,NaN,NaN,NaN,2,8.4,063569,   NaN,14.2,     NaN,      NaN,8.62,NaN,NaN,17.989, NaN,NaN,NaN, NaN, NaN
20081014,172159,0,32.751686,-117.332970,2.5,17.511,33.438,43.588,2267.10,0.0,2.754,18.240, NaN, NaN,24.200,   NaN,23.41,1015.97,40.96,20.70,339.2,339.2,11.2,11.8,327.9,332.4,6.7,7.3,NaN, NaN,24.0,9.3,NaN,NaN,NaN,2,8.8,062520,   NaN,9.3,     NaN,      NaN,9.01,NaN,NaN,17.515, NaN,NaN,NaN, NaN, NaN
20081014,172214,14,32.752255,-117.332908,2.5,17.499,33.437,43.579,2268.81,0.0,2.744,18.240, NaN, NaN,24.204,   NaN,23.32,1015.99,41.12,20.71,337.8,337.5,11.3,11.8,331.0,332.1,7.4,8.0,NaN, NaN,25.0,9.3,NaN,NaN,NaN,2,8.8,062534,   NaN,9.3,     NaN,      NaN,8.97,NaN,NaN,17.503, NaN,NaN,NaN, NaN, NaN
20081014,172229,29,32.752905,-117.332853,2.5,17.489,33.442,43.572,2271.59,0.0,2.822,18.250, NaN, NaN,24.205,   NaN,23.22,1015.94,41.62,20.84,336.9,336.6,11.3,11.8,331.0,331.5,7.3,7.6,NaN, NaN,25.0,9.4,NaN,NaN,NaN,2,8.7,062550,   NaN,9.4,     NaN,      NaN,8.93,NaN,NaN,17.493, NaN,NaN,NaN, NaN, NaN
20081014,172244,44,32.753471,-117.332825,2.5,17.479,33.442,43.565,2270.16,0.0,2.822,18.250, NaN, NaN,24.207,   NaN,23.14,1015.92,41.75,20.77,336.3,336.1,11.3,11.7,330.8,330.1,7.2,7.7,NaN, NaN,25.0,9.4,NaN,NaN,NaN,2,8.7,062564,   NaN,9.4,     NaN,      NaN,8.92,NaN,NaN,17.483, NaN,NaN,NaN, NaN, NaN
20081014,172259,59,32.754115,-117.332770,2.5,17.474,33.441,43.561,2269.19,0.0,2.860,18.250, NaN, NaN,24.209,   NaN,23.11,1015.97,41.48,20.76,336.0,335.9,11.3,11.8,327.9,331.2,7.3,8.3,NaN, NaN,25.0,9.5,NaN,NaN,NaN,2,8.7,062580,   NaN,9.5,     NaN,      NaN,8.69,NaN,NaN,17.478, NaN,NaN,NaN, NaN, NaN
20081014,172314,74,32.754681,-117.332717,2.5,17.470,33.428,43.557,2270.50,0.0,2.585,18.250, NaN, NaN,24.217,   NaN,23.19,1015.92,40.49,20.79,335.9,335.9,11.2,11.8,325.7,330.7,6.4,7.2,NaN, NaN,25.0,9.5,NaN,NaN,NaN,2,8.7,062594,   NaN,9.4,     NaN,      NaN,8.93,NaN,NaN,17.474, NaN,NaN,NaN, NaN, NaN
20081014,172329,89,32.755338,-117.332677,2.6,17.457,33.428,43.544,2264.94,0.0,2.552,18.240, NaN, NaN,24.230,   NaN,23.25,1015.94,40.24,20.80,336.0,335.9,11.1,11.7,333.2,332.5,7.0,7.5,NaN, NaN,25.0,9.1,NaN,NaN,NaN,2,8.7,062610,   NaN,9.1,     NaN,      NaN,8.68,NaN,NaN,17.461, NaN,NaN,NaN, NaN, NaN
20081014,172344,105,32.755935,-117.332633,2.6,17.406,33.432,43.488,2262.55,0.0,2.585,18.240, NaN, NaN,24.225,   NaN,23.26,1015.97,40.39,20.83,336.7,336.4,11.1,11.7,336.2,334.1,7.6,7.3,NaN, NaN,25.0,9.2,NaN,NaN,NaN,2,8.6,062625,   NaN,9.2,     NaN,      NaN,8.71,NaN,NaN,17.410, NaN,NaN,NaN, NaN, NaN